| time (UTC) | temp C | wind direction | speed KPH | gust KPH | rain 1hr cm | rain 24hr cm | rain mn cm | humidity % | barometer mb |
| 20260505054815 | 8 | 45 | 4.8 | 0.0 | 0.00 | 0.00 | 0.00 | 81 | 1058.4 |
| 20260505054419 | 8 | 67 | 8.0 | 0.0 | 0.00 | 0.00 | 0.00 | 81 | 1058.3 |
| 20260505054313 | 8 | 45 | 0.0 | 0.0 | 0.00 | 0.00 | 0.00 | 81 | 1058.3 |
| 20260505054144 | 8 | 90 | 4.8 | 0.0 | 0.00 | 0.00 | 0.00 | 81 | 1058.3 |
| 20260505054022 | 8 | 45 | 9.7 | 0.0 | 0.00 | 0.00 | 0.00 | 81 | 1058.3 |
| 20260505053902 | 8 | 67 | 8.0 | 0.0 | 0.00 | 0.00 | 0.00 | 81 | 1058.3 |
| 20260505053741 | 8 | 45 | 8.0 | 0.0 | 0.00 | 0.00 | 0.00 | 81 | 1058.2 |
| 20260505053635 | 8 | 45 | 0.0 | 0.0 | 0.00 | 0.00 | 0.00 | 81 | 1058.3 |
| 20260505053505 | 8 | 22 | 9.7 | 0.0 | 0.00 | 0.00 | 0.00 | 81 | 1058.1 |
| 20260505053353 | 8 | 90 | 3.2 | 0.0 | 0.00 | 0.00 | 0.00 | 81 | 1058.3 |
| 20260505053231 | 8 | 112 | 6.4 | 0.0 | 0.00 | 0.00 | 0.00 | 81 | 1058.2 |
| 20260505053102 | 8 | 67 | 3.2 | 0.0 | 0.00 | 0.00 | 0.00 | 81 | 1058.2 |
| 20260505052940 | 8 | 112 | 0.0 | 0.0 | 0.00 | 0.00 | 0.00 | 81 | 1058.2 |
| 20260505052813 | 8 | 45 | 4.8 | 0.0 | 0.00 | 0.00 | 0.00 | 81 | 1058.2 |
| 20260505052658 | 8 | 90 | 3.2 | 0.0 | 0.00 | 0.00 | 0.00 | 81 | 1058.2 |
| 20260505052537 | 8 | 45 | 8.0 | 0.0 | 0.00 | 0.00 | 0.00 | 81 | 1058.2 |
| 20260505052407 | 8 | 45 | 12.9 | 0.0 | 0.00 | 0.00 | 0.00 | 81 | 1058.3 |
| 20260505052238 | 8 | 90 | 6.4 | 0.0 | 0.00 | 0.00 | 0.00 | 82 | 1058.1 |
| 20260505052111 | 8 | 67 | 12.9 | 0.0 | 0.00 | 0.00 | 0.00 | 82 | 1058.1 |
| 20260505052004 | 8 | 45 | 9.7 | 0.0 | 0.00 | 0.00 | 0.00 | 82 | 1058.1 |
| 20260505051851 | 8 | 45 | 6.4 | 0.0 | 0.00 | 0.00 | 0.00 | 82 | 1058.1 |
| 20260505051737 | 8 | 45 | 3.2 | 0.0 | 0.00 | 0.00 | 0.00 | 82 | 1058.1 |
| 20260505051619 | 8 | 45 | 9.7 | 0.0 | 0.00 | 0.00 | 0.00 | 82 | 1058.1 |
| 20260505051512 | 8 | 45 | 6.4 | 0.0 | 0.00 | 0.00 | 0.00 | 82 | 1058.1 |
| 20260505051350 | 8 | 45 | 6.4 | 0.0 | 0.00 | 0.00 | 0.00 | 82 | 1058.1 |
| 20260505051229 | 8 | 90 | 6.4 | 0.0 | 0.00 | 0.00 | 0.00 | 82 | 1058.1 |
| 20260505051116 | 8 | 45 | 3.2 | 0.0 | 0.00 | 0.00 | 0.00 | 82 | 1058.0 |
| 20260505051003 | 8 | 90 | 0.0 | 0.0 | 0.00 | 0.00 | 0.00 | 82 | 1058.0 |
| 20260505050841 | 8 | 22 | 4.8 | 0.0 | 0.00 | 0.00 | 0.00 | 82 | 1058.1 |
| 20260505050722 | 8 | 45 | 3.2 | 0.0 | 0.00 | 0.00 | 0.00 | 82 | 1058.1 |
| 20260505050615 | 8 | 67 | 0.0 | 0.0 | 0.00 | 0.00 | 0.00 | 82 | 1058.1 |
| 20260505050456 | 8 | 67 | 8.0 | 0.0 | 0.00 | 0.00 | 0.00 | 82 | 1058.1 |
| 20260505050351 | 8 | 45 | 8.0 | 0.0 | 0.00 | 0.00 | 0.00 | 82 | 1058.0 |
| 20260505050243 | 8 | 67 | 0.0 | 0.0 | 0.00 | 0.00 | 0.00 | 82 | 1058.1 |
| 20260505050131 | 8 | 90 | 14.5 | 0.0 | 0.00 | 0.00 | 0.00 | 82 | 1058.1 |
| 20260505041730 | 8 | 22 | 6.4 | 0.0 | 0.00 | 0.00 | 0.00 | 83 | 1057.9 |
| 20260505041608 | 8 | 45 | 11.3 | 0.0 | 0.00 | 0.00 | 0.00 | 83 | 1057.9 |
| 20260505041455 | 8 | 22 | 9.7 | 0.0 | 0.00 | 0.00 | 0.00 | 83 | 1058.0 |
| 20260505041341 | 8 | 67 | 9.7 | 0.0 | 0.00 | 0.00 | 0.00 | 83 | 1057.9 |
| 20260505041213 | 8 | 45 | 8.0 | 0.0 | 0.00 | 0.00 | 0.00 | 83 | 1057.8 |
| 20260505041044 | 8 | 45 | 6.4 | 0.0 | 0.00 | 0.00 | 0.00 | 83 | 1057.8 |
| 20260505040930 | 8 | 45 | 3.2 | 0.0 | 0.00 | 0.00 | 0.00 | 83 | 1057.9 |
| 20260505040812 | 8 | 22 | 9.7 | 0.0 | 0.00 | 0.00 | 0.00 | 83 | 1057.9 |
| 20260505040656 | 8 | 45 | 3.2 | 0.0 | 0.00 | 0.00 | 0.00 | 83 | 1057.8 |
| 20260505040543 | 8 | 22 | 6.4 | 0.0 | 0.00 | 0.00 | 0.00 | 83 | 1057.9 |
| 20260505040431 | 8 | 0 | 3.2 | 0.0 | 0.00 | 0.00 | 0.00 | 83 | 1057.8 |
| 20260505040324 | 8 | 0 | 6.4 | 0.0 | 0.00 | 0.00 | 0.00 | 83 | 1057.8 |
| 20260505040211 | 8 | 45 | 11.3 | 0.0 | 0.00 | 0.00 | 0.00 | 83 | 1057.8 |
| 20260505040051 | 8 | 0 | 11.3 | 0.0 | 0.00 | 0.00 | 0.00 | 83 | 1057.8 |
| 20260505035945 | 8 | 0 | 4.8 | 0.0 | 0.00 | 0.00 | 0.00 | 83 | 1057.8 |
| 20260505035832 | 8 | 45 | 6.4 | 0.0 | 0.00 | 0.00 | 0.00 | 83 | 1057.7 |
| 20260505035710 | 8 | 67 | 0.0 | 0.0 | 0.00 | 0.00 | 0.00 | 83 | 1057.8 |
| 20260505035558 | 8 | 22 | 8.0 | 0.0 | 0.00 | 0.00 | 0.00 | 83 | 1057.8 |
| 20260505035436 | 8 | 22 | 8.0 | 0.0 | 0.00 | 0.00 | 0.00 | 83 | 1057.9 |
| 20260505035316 | 8 | 0 | 6.4 | 0.0 | 0.00 | 0.00 | 0.00 | 83 | 1057.8 |
| 20260505035202 | 8 | 45 | 9.7 | 0.0 | 0.00 | 0.00 | 0.00 | 83 | 1057.8 |
| 20260505035042 | 8 | 22 | 9.7 | 0.0 | 0.00 | 0.00 | 0.00 | 83 | 1057.8 |
| 20260505034929 | 8 | 22 | 4.8 | 0.0 | 0.00 | 0.00 | 0.00 | 83 | 1057.9 |
| 20260505034824 | 8 | 45 | 8.0 | 0.0 | 0.00 | 0.00 | 0.00 | 83 | 1057.9 |
| 20260505034711 | 8 | 45 | 3.2 | 0.0 | 0.00 | 0.00 | 0.00 | 83 | 1057.8 |
| 20260505034606 | 8 | 22 | 9.7 | 0.0 | 0.00 | 0.00 | 0.00 | 83 | 1057.9 |
| 20260505034454 | 8 | 0 | 6.4 | 0.0 | 0.00 | 0.00 | 0.00 | 83 | 1057.8 |
| 20260505034338 | 8 | 45 | 9.7 | 0.0 | 0.00 | 0.00 | 0.00 | 83 | 1057.8 |
| 20260505034226 | 8 | 90 | 8.0 | 0.0 | 0.00 | 0.00 | 0.00 | 83 | 1057.9 |
| 20260505034104 | 8 | 90 | 16.1 | 0.0 | 0.00 | 0.00 | 0.00 | 83 | 1057.8 |
| 20260505033951 | 8 | 22 | 9.7 | 0.0 | 0.00 | 0.00 | 0.00 | 83 | 1057.8 |
| 20260505033832 | 8 | 22 | 8.0 | 0.0 | 0.00 | 0.00 | 0.00 | 83 | 1057.9 |
| 20260505033724 | 8 | 22 | 16.1 | 0.0 | 0.00 | 0.00 | 0.00 | 83 | 1057.9 |
| 20260505033605 | 8 | 0 | 0.0 | 0.0 | 0.00 | 0.00 | 0.00 | 83 | 1057.9 |
| 20260505033458 | 8 | 45 | 11.3 | 0.0 | 0.00 | 0.00 | 0.00 | 83 | 1057.8 |
| 20260505033344 | 8 | 0 | 3.2 | 0.0 | 0.00 | 0.00 | 0.00 | 83 | 1057.9 |
| 20260505033216 | 8 | 22 | 4.8 | 0.0 | 0.00 | 0.00 | 0.00 | 83 | 1057.8 |
| 20260505033103 | 8 | 67 | 11.3 | 0.0 | 0.00 | 0.00 | 0.00 | 83 | 1057.8 |
| 20260505032949 | 8 | 45 | 9.7 | 0.0 | 0.00 | 0.00 | 0.00 | 83 | 1057.9 |
| 20260505032838 | 8 | 0 | 11.3 | 0.0 | 0.00 | 0.00 | 0.00 | 83 | 1057.9 |
| 20260505032731 | 8 | 67 | 8.0 | 0.0 | 0.00 | 0.00 | 0.00 | 83 | 1058.0 |
| 20260505032618 | 8 | 45 | 6.4 | 0.0 | 0.00 | 0.00 | 0.00 | 84 | 1057.9 |
| 20260505032512 | 8 | 22 | 3.2 | 0.0 | 0.00 | 0.00 | 0.00 | 84 | 1058.0 |
| 20260505032359 | 8 | 22 | 12.9 | 0.0 | 0.00 | 0.00 | 0.00 | 84 | 1057.9 |
| 20260505032238 | 8 | 22 | 9.7 | 0.0 | 0.00 | 0.00 | 0.00 | 84 | 1058.0 |
| 20260505032133 | 8 | 22 | 9.7 | 0.0 | 0.00 | 0.00 | 0.00 | 84 | 1058.0 |
| 20260505032020 | 8 | 45 | 8.0 | 0.0 | 0.00 | 0.00 | 0.00 | 84 | 1058.0 |
| 20260505031858 | 8 | 67 | 11.3 | 0.0 | 0.00 | 0.00 | 0.00 | 84 | 1057.9 |
| 20260505031740 | 8 | 67 | 11.3 | 0.0 | 0.00 | 0.00 | 0.00 | 84 | 1058.0 |
| 20260505031632 | 8 | 22 | 9.7 | 0.0 | 0.00 | 0.00 | 0.00 | 84 | 1058.0 |
| 20260505031510 | 8 | 67 | 11.3 | 0.0 | 0.00 | 0.00 | 0.00 | 84 | 1058.0 |
| 20260505031352 | 8 | 22 | 8.0 | 0.0 | 0.00 | 0.00 | 0.00 | 84 | 1058.1 |
| 20260505031245 | 8 | 45 | 4.8 | 0.0 | 0.00 | 0.00 | 0.00 | 84 | 1058.0 |
| 20260505031131 | 8 | 22 | 6.4 | 0.0 | 0.00 | 0.00 | 0.00 | 84 | 1058.1 |
| 20260505031010 | 8 | 22 | 11.3 | 0.0 | 0.00 | 0.00 | 0.00 | 84 | 1058.0 |
| 20260505030849 | 8 | 22 | 0.0 | 0.0 | 0.00 | 0.00 | 0.00 | 84 | 1058.2 |
| 20260505030744 | 8 | 45 | 1.6 | 0.0 | 0.00 | 0.00 | 0.00 | 84 | 1058.1 |
| 20260505030631 | 8 | 22 | 4.8 | 0.0 | 0.00 | 0.00 | 0.00 | 83 | 1058.1 |
| 20260505030509 | 8 | 0 | 6.4 | 0.0 | 0.00 | 0.00 | 0.00 | 84 | 1058.2 |
| 20260505030356 | 8 | 67 | 8.0 | 0.0 | 0.00 | 0.00 | 0.00 | 84 | 1058.1 |
| 20260505030244 | 8 | 22 | 4.8 | 0.0 | 0.00 | 0.00 | 0.00 | 83 | 1058.2 |
| 20260505030136 | 8 | 22 | 8.0 | 0.0 | 0.00 | 0.00 | 0.00 | 84 | 1058.1 |
| 20260505030017 | 8 | 22 | 6.4 | 0.0 | 0.00 | 0.00 | 0.00 | 84 | 1058.1 |
| 20260505025908 | 8 | 22 | 8.0 | 0.0 | 0.00 | 0.00 | 0.00 | 84 | 1058.1 |
| 20260505025754 | 8 | 0 | 6.4 | 0.0 | 0.00 | 0.00 | 0.00 | 84 | 1058.2 |
| 20260505025648 | 8 | 22 | 8.0 | 0.0 | 0.00 | 0.00 | 0.00 | 84 | 1058.1 |
| 20260505025525 | 8 | 45 | 6.4 | 0.0 | 0.00 | 0.00 | 0.00 | 84 | 1058.1 |
| 20260505025411 | 8 | 0 | 4.8 | 0.0 | 0.00 | 0.00 | 0.00 | 84 | 1058.1 |
| 20260505025257 | 8 | 22 | 8.0 | 0.0 | 0.00 | 0.00 | 0.00 | 84 | 1058.0 |
| 20260505025154 | 8 | 0 | 6.4 | 0.0 | 0.00 | 0.00 | 0.00 | 84 | 1058.0 |
| 20260505025047 | 8 | 45 | 6.4 | 0.0 | 0.00 | 0.00 | 0.00 | 84 | 1058.1 |
| 20260505024933 | 8 | 0 | 9.7 | 0.0 | 0.00 | 0.00 | 0.00 | 84 | 1058.0 |
| 20260505024811 | 8 | 22 | 9.7 | 0.0 | 0.00 | 0.00 | 0.00 | 84 | 1058.1 |
| 20260505024642 | 8 | 0 | 6.4 | 0.0 | 0.00 | 0.00 | 0.00 | 84 | 1058.1 |
| 20260505024527 | 8 | 22 | 6.4 | 0.0 | 0.00 | 0.00 | 0.00 | 84 | 1058.1 |
| 20260505024414 | 8 | 22 | 3.2 | 0.0 | 0.00 | 0.00 | 0.00 | 84 | 1058.2 |
| 20260505024253 | 8 | 22 | 12.9 | 0.0 | 0.00 | 0.00 | 0.00 | 84 | 1058.1 |
| 20260505024141 | 8 | 0 | 4.8 | 0.0 | 0.00 | 0.00 | 0.00 | 84 | 1058.1 |
| 20260505024034 | 8 | 45 | 9.7 | 0.0 | 0.00 | 0.00 | 0.00 | 84 | 1058.1 |
| 20260505023920 | 8 | 22 | 9.7 | 0.0 | 0.00 | 0.00 | 0.00 | 84 | 1058.2 |
| 20260505023754 | 8 | 0 | 3.2 | 0.0 | 0.00 | 0.00 | 0.00 | 84 | 1058.3 |
| 20260505023638 | 8 | 45 | 11.3 | 0.0 | 0.00 | 0.00 | 0.00 | 84 | 1058.2 |
| 20260505023526 | 8 | 22 | 9.7 | 0.0 | 0.00 | 0.00 | 0.00 | 84 | 1058.2 |
| 20260505023414 | 8 | 45 | 9.7 | 0.0 | 0.00 | 0.00 | 0.00 | 84 | 1058.2 |
| 20260505023301 | 8 | 45 | 3.2 | 0.0 | 0.00 | 0.00 | 0.00 | 84 | 1058.2 |
| 20260505023154 | 8 | 22 | 0.0 | 0.0 | 0.00 | 0.00 | 0.00 | 84 | 1058.2 |
| 20260505023041 | 8 | 22 | 6.4 | 0.0 | 0.00 | 0.00 | 0.00 | 84 | 1058.3 |
| 20260505022921 | 8 | 22 | 9.7 | 0.0 | 0.00 | 0.00 | 0.00 | 84 | 1058.3 |
| 20260505022814 | 8 | 22 | 9.7 | 0.0 | 0.00 | 0.00 | 0.00 | 84 | 1058.2 |
| 20260505022653 | 8 | 22 | 6.4 | 0.0 | 0.00 | 0.00 | 0.00 | 84 | 1058.3 |
| 20260505022532 | 8 | 22 | 9.7 | 0.0 | 0.00 | 0.00 | 0.00 | 84 | 1058.2 |
| 20260505022411 | 8 | 45 | 11.3 | 0.0 | 0.00 | 0.00 | 0.00 | 84 | 1058.2 |
| 20260505022306 | 8 | 22 | 14.5 | 0.0 | 0.00 | 0.00 | 0.00 | 84 | 1058.3 |
| 20260505022154 | 8 | 45 | 4.8 | 0.0 | 0.00 | 0.00 | 0.00 | 84 | 1058.3 |
| 20260505022050 | 8 | 0 | 6.4 | 0.0 | 0.00 | 0.00 | 0.00 | 84 | 1058.3 |
| 20260505021941 | 8 | 0 | 4.8 | 0.0 | 0.00 | 0.00 | 0.00 | 84 | 1058.2 |
| 20260505021822 | 8 | 22 | 3.2 | 0.0 | 0.00 | 0.00 | 0.00 | 84 | 1058.2 |
| 20260505021708 | 8 | 22 | 6.4 | 0.0 | 0.00 | 0.00 | 0.00 | 84 | 1058.3 |
| 20260505021549 | 8 | 22 | 0.0 | 0.0 | 0.00 | 0.00 | 0.00 | 84 | 1058.3 |
| 20260505021436 | 8 | 22 | 4.8 | 0.0 | 0.00 | 0.00 | 0.00 | 84 | 1058.3 |
| 20260505021331 | 8 | 22 | 3.2 | 0.0 | 0.00 | 0.00 | 0.00 | 84 | 1058.2 |
| 20260505021224 | 8 | 45 | 6.4 | 0.0 | 0.00 | 0.00 | 0.00 | 84 | 1058.4 |
| 20260505021110 | 8 | 22 | 9.7 | 0.0 | 0.00 | 0.00 | 0.00 | 84 | 1058.3 |
| 20260505020943 | 8 | 22 | 11.3 | 0.0 | 0.00 | 0.00 | 0.00 | 84 | 1058.4 |
| 20260505020837 | 8 | 22 | 4.8 | 0.0 | 0.00 | 0.00 | 0.00 | 84 | 1058.4 |
| 20260505020724 | 8 | 22 | 0.0 | 0.0 | 0.00 | 0.00 | 0.00 | 84 | 1058.3 |
| 20260505020602 | 8 | 0 | 3.2 | 0.0 | 0.00 | 0.00 | 0.00 | 84 | 1058.3 |
| 20260505020442 | 8 | 22 | 4.8 | 0.0 | 0.00 | 0.00 | 0.00 | 84 | 1058.3 |
| 20260505020337 | 8 | 0 | 0.0 | 0.0 | 0.00 | 0.00 | 0.00 | 84 | 1058.3 |
| 20260505020232 | 8 | 45 | 3.2 | 0.0 | 0.00 | 0.00 | 0.00 | 84 | 1058.4 |
| 20260505020126 | 8 | 0 | 6.4 | 0.0 | 0.00 | 0.00 | 0.00 | 84 | 1058.4 |
| 20260505020012 | 8 | 0 | 6.4 | 0.0 | 0.00 | 0.00 | 0.00 | 84 | 1058.4 |
| 20260505015900 | 8 | 0 | 11.3 | 0.0 | 0.00 | 0.00 | 0.00 | 84 | 1058.5 |
| 20260505015746 | 8 | 22 | 6.4 | 0.0 | 0.00 | 0.00 | 0.00 | 84 | 1058.4 |
| 20260505015632 | 8 | 22 | 11.3 | 0.0 | 0.00 | 0.00 | 0.00 | 84 | 1058.5 |
| 20260505015512 | 8 | 22 | 11.3 | 0.0 | 0.00 | 0.00 | 0.00 | 84 | 1058.4 |
| 20260505015352 | 8 | 22 | 8.0 | 0.0 | 0.00 | 0.00 | 0.00 | 84 | 1058.4 |
| 20260505015246 | 8 | 0 | 6.4 | 0.0 | 0.00 | 0.00 | 0.00 | 84 | 1058.4 |
| 20260505015141 | 8 | 22 | 9.7 | 0.0 | 0.00 | 0.00 | 0.00 | 84 | 1058.4 |
| 20260505015027 | 8 | 67 | 12.9 | 0.0 | 0.00 | 0.00 | 0.00 | 84 | 1058.5 |
| 20260505014900 | 8 | 0 | 4.8 | 0.0 | 0.00 | 0.00 | 0.00 | 84 | 1058.4 |
| 20260505014754 | 8 | 22 | 9.7 | 0.0 | 0.00 | 0.00 | 0.00 | 84 | 1058.4 |
| 20260505014649 | 8 | 0 | 4.8 | 0.0 | 0.00 | 0.00 | 0.00 | 84 | 1058.4 |
| 20260505014535 | 8 | 45 | 9.7 | 0.0 | 0.00 | 0.00 | 0.00 | 84 | 1058.4 |
| 20260505014415 | 8 | 22 | 16.1 | 0.0 | 0.00 | 0.00 | 0.00 | 84 | 1058.4 |
| 20260505014301 | 8 | 337 | 6.4 | 0.0 | 0.00 | 0.00 | 0.00 | 84 | 1058.4 |
| 20260505014139 | 8 | 0 | 8.0 | 0.0 | 0.00 | 0.00 | 0.00 | 84 | 1058.4 |
| 20260505014029 | 8 | 22 | 8.0 | 0.0 | 0.00 | 0.00 | 0.00 | 84 | 1058.5 |
| 20260505013924 | 8 | 337 | 9.7 | 0.0 | 0.00 | 0.00 | 0.00 | 84 | 1058.5 |
| 20260505013819 | 8 | 0 | 3.2 | 0.0 | 0.00 | 0.00 | 0.00 | 84 | 1058.5 |
| 20260505013712 | 8 | 0 | 3.2 | 0.0 | 0.00 | 0.00 | 0.00 | 84 | 1058.4 |
| 20260505013558 | 8 | 45 | 11.3 | 0.0 | 0.00 | 0.00 | 0.00 | 84 | 1058.5 |
| 20260505013437 | 8 | 22 | 4.8 | 0.0 | 0.00 | 0.00 | 0.00 | 84 | 1058.4 |
| 20260505013315 | 8 | 0 | 6.4 | 0.0 | 0.00 | 0.00 | 0.00 | 84 | 1058.6 |
| 20260505013138 | 8 | 337 | 4.8 | 0.0 | 0.00 | 0.00 | 0.00 | 84 | 1058.5 |
| 20260505012903 | 8 | 0 | 4.8 | 0.0 | 0.00 | 0.00 | 0.00 | 84 | 1058.5 |
| 20260505012751 | 8 | 0 | 1.6 | 0.0 | 0.00 | 0.00 | 0.00 | 84 | 1058.6 |
| 20260505012517 | 8 | 0 | 4.8 | 0.0 | 0.00 | 0.00 | 0.00 | 84 | 1058.5 |
| 20260505012414 | 8 | 0 | 0.0 | 0.0 | 0.00 | 0.00 | 0.00 | 84 | 1058.5 |
| 20260505012306 | 8 | 0 | 4.8 | 0.0 | 0.00 | 0.00 | 0.00 | 84 | 1058.6 |
| 20260505012155 | 8 | 0 | 9.7 | 0.0 | 0.00 | 0.00 | 0.00 | 84 | 1058.6 |
| 20260505012048 | 8 | 337 | 9.7 | 0.0 | 0.00 | 0.00 | 0.00 | 84 | 1058.6 |
| 20260505011919 | 8 | 22 | 4.8 | 0.0 | 0.00 | 0.00 | 0.00 | 84 | 1058.6 |
| 20260505011805 | 8 | 45 | 6.4 | 0.0 | 0.00 | 0.00 | 0.00 | 84 | 1058.6 |
| 20260505011652 | 8 | 0 | 8.0 | 0.0 | 0.00 | 0.00 | 0.00 | 84 | 1058.7 |
| 20260505011533 | 8 | 22 | 0.0 | 0.0 | 0.00 | 0.00 | 0.00 | 84 | 1058.7 |
| 20260505011424 | 8 | 22 | 0.0 | 0.0 | 0.00 | 0.00 | 0.00 | 84 | 1058.6 |
| 20260505011310 | 8 | 22 | 0.0 | 0.0 | 0.00 | 0.00 | 0.00 | 84 | 1058.7 |
| 20260505011147 | 8 | 45 | 6.4 | 0.0 | 0.00 | 0.00 | 0.00 | 84 | 1058.6 |
| 20260505011035 | 8 | 22 | 4.8 | 0.0 | 0.00 | 0.00 | 0.00 | 84 | 1058.6 |
| 20260505010927 | 8 | 0 | 4.8 | 0.0 | 0.00 | 0.00 | 0.00 | 84 | 1058.6 |
| 20260505010812 | 8 | 0 | 8.0 | 0.0 | 0.00 | 0.00 | 0.00 | 84 | 1058.6 |
| 20260505010652 | 8 | 22 | 4.8 | 0.0 | 0.00 | 0.00 | 0.00 | 84 | 1058.6 |
| 20260505010536 | 8 | 22 | 9.7 | 0.0 | 0.00 | 0.00 | 0.00 | 84 | 1058.7 |
| 20260505010422 | 8 | 0 | 4.8 | 0.0 | 0.00 | 0.00 | 0.00 | 84 | 1058.7 |
| 20260505010306 | 8 | 22 | 4.8 | 0.0 | 0.00 | 0.00 | 0.00 | 84 | 1058.6 |
| 20260505005925 | 8 | 22 | 11.3 | 0.0 | 0.00 | 0.00 | 0.00 | 84 | 1058.7 |
| 20260505005811 | 8 | 22 | 3.2 | 0.0 | 0.00 | 0.00 | 0.00 | 84 | 1058.7 |
| 20260505005648 | 8 | 0 | 6.4 | 0.0 | 0.00 | 0.00 | 0.00 | 84 | 1058.7 |
| 20260505005535 | 8 | 0 | 3.2 | 0.0 | 0.00 | 0.00 | 0.00 | 84 | 1058.7 |
| 20260505005430 | 8 | 22 | 3.2 | 0.0 | 0.00 | 0.00 | 0.00 | 84 | 1058.8 |
| 20260505005323 | 8 | 22 | 0.0 | 0.0 | 0.00 | 0.00 | 0.00 | 84 | 1058.8 |
| 20260505005218 | 8 | 45 | 0.0 | 0.0 | 0.00 | 0.00 | 0.00 | 84 | 1058.8 |
| 20260505005111 | 8 | 0 | 3.2 | 0.0 | 0.00 | 0.00 | 0.00 | 84 | 1058.8 |
| 20260505005005 | 8 | 0 | 9.7 | 0.0 | 0.00 | 0.00 | 0.00 | 84 | 1058.8 |
| 20260505004851 | 8 | 0 | 6.4 | 0.0 | 0.00 | 0.00 | 0.00 | 84 | 1058.8 |
| 20260505004728 | 8 | 22 | 9.7 | 0.0 | 0.00 | 0.00 | 0.00 | 84 | 1058.8 |
| 20260505004614 | 8 | 22 | 4.8 | 0.0 | 0.00 | 0.00 | 0.00 | 84 | 1058.8 |
| 20260505004453 | 8 | 22 | 6.4 | 0.0 | 0.00 | 0.00 | 0.00 | 84 | 1058.9 |
| 20260505004339 | 8 | 0 | 3.2 | 0.0 | 0.00 | 0.00 | 0.00 | 84 | 1058.8 |
| 20260505004224 | 8 | 0 | 6.4 | 0.0 | 0.00 | 0.00 | 0.00 | 84 | 1058.8 |
| 20260505004104 | 8 | 45 | 9.7 | 0.0 | 0.00 | 0.00 | 0.00 | 84 | 1058.8 |
| 20260505003951 | 8 | 0 | 0.0 | 0.0 | 0.00 | 0.00 | 0.00 | 84 | 1058.8 |
| 20260505003843 | 8 | 0 | 12.9 | 0.0 | 0.00 | 0.00 | 0.00 | 84 | 1058.8 |
| 20260505003729 | 8 | 22 | 4.8 | 0.0 | 0.00 | 0.00 | 0.00 | 84 | 1058.9 |
| 20260505003624 | 8 | 22 | 4.8 | 0.0 | 0.00 | 0.00 | 0.00 | 84 | 1058.9 |
| 20260505003517 | 8 | 0 | 0.0 | 0.0 | 0.00 | 0.00 | 0.00 | 84 | 1058.9 |
| 20260505003406 | 8 | 0 | 0.0 | 0.0 | 0.00 | 0.00 | 0.00 | 84 | 1058.8 |
| 20260505003257 | 8 | 0 | 0.0 | 0.0 | 0.00 | 0.00 | 0.00 | 84 | 1058.8 |
| 20260505003143 | 8 | 22 | 3.2 | 0.0 | 0.00 | 0.00 | 0.00 | 84 | 1058.8 |
| 20260505003031 | 8 | 0 | 9.7 | 0.0 | 0.00 | 0.00 | 0.00 | 84 | 1058.8 |
| 20260505002923 | 8 | 22 | 9.7 | 0.0 | 0.00 | 0.00 | 0.00 | 84 | 1058.8 |
| 20260505002809 | 8 | 22 | 3.2 | 0.0 | 0.00 | 0.00 | 0.00 | 84 | 1058.8 |
| 20260505002703 | 8 | 22 | 0.0 | 0.0 | 0.00 | 0.00 | 0.00 | 84 | 1058.8 |
| 20260505002557 | 8 | 45 | 9.7 | 0.0 | 0.00 | 0.00 | 0.00 | 84 | 1058.7 |
| 20260505002450 | 8 | 45 | 6.4 | 0.0 | 0.00 | 0.00 | 0.00 | 84 | 1058.8 |
| 20260505002320 | 8 | 22 | 8.0 | 0.0 | 0.00 | 0.00 | 0.00 | 84 | 1058.8 |
| 20260505002206 | 8 | 22 | 4.8 | 0.0 | 0.00 | 0.00 | 0.00 | 84 | 1058.7 |
| 20260505002100 | 8 | 0 | 4.8 | 0.0 | 0.00 | 0.00 | 0.00 | 84 | 1058.8 |
| 20260505001953 | 8 | 45 | 0.0 | 0.0 | 0.00 | 0.00 | 0.00 | 83 | 1058.8 |
| 20260505001841 | 8 | 22 | 12.9 | 0.0 | 0.00 | 0.00 | 0.00 | 84 | 1058.9 |
| 20260505001717 | 8 | 22 | 3.2 | 0.0 | 0.00 | 0.00 | 0.00 | 83 | 1058.8 |
| 20260505001603 | 8 | 0 | 9.7 | 0.0 | 0.00 | 0.00 | 0.00 | 84 | 1058.9 |
| 20260505001457 | 8 | 0 | 9.7 | 0.0 | 0.00 | 0.00 | 0.00 | 84 | 1058.9 |
| 20260505001350 | 8 | 22 | 4.8 | 0.0 | 0.00 | 0.00 | 0.00 | 84 | 1058.8 |
| 20260505001237 | 8 | 22 | 8.0 | 0.0 | 0.00 | 0.00 | 0.00 | 84 | 1058.9 |
| 20260505001114 | 8 | 22 | 6.4 | 0.0 | 0.00 | 0.00 | 0.00 | 84 | 1058.9 |
| 20260505001000 | 8 | 0 | 9.7 | 0.0 | 0.00 | 0.00 | 0.00 | 84 | 1058.9 |
| 20260505000854 | 8 | 337 | 9.7 | 0.0 | 0.00 | 0.00 | 0.00 | 84 | 1058.9 |
| 20260505000746 | 8 | 0 | 9.7 | 0.0 | 0.00 | 0.00 | 0.00 | 84 | 1059.0 |
| 20260505000633 | 8 | 22 | 8.0 | 0.0 | 0.00 | 0.00 | 0.00 | 84 | 1059.0 |
| 20260505000510 | 8 | 337 | 0.0 | 0.0 | 0.00 | 0.00 | 0.00 | 84 | 1059.0 |
| 20260505000358 | 8 | 22 | 11.3 | 0.0 | 0.00 | 0.00 | 0.00 | 83 | 1059.0 |
| 20260505000251 | 8 | 45 | 6.4 | 0.0 | 0.00 | 0.00 | 0.00 | 83 | 1059.0 |
| 20260505000145 | 8 | 22 | 6.4 | 0.0 | 0.00 | 0.00 | 0.00 | 83 | 1059.0 |
| 20260505000024 | 8 | 22 | 0.0 | 0.0 | 0.00 | 0.00 | 0.00 | 84 | 1059.0 |
| 20260504235910 | 8 | 22 | 9.7 | 0.0 | 0.00 | 0.00 | 0.00 | 84 | 1059.0 |
| 20260504235756 | 8 | 22 | 4.8 | 0.0 | 0.00 | 0.00 | 0.00 | 83 | 1059.0 |
| 20260504235651 | 8 | 22 | 6.4 | 0.0 | 0.00 | 0.00 | 0.00 | 84 | 1059.0 |
| 20260504235543 | 8 | 22 | 11.3 | 0.0 | 0.00 | 0.00 | 0.00 | 84 | 1059.0 |
| 20260504235424 | 8 | 0 | 9.7 | 0.0 | 0.00 | 0.00 | 0.00 | 84 | 1059.0 |
| 20260504235316 | 8 | 0 | 0.0 | 0.0 | 0.00 | 0.00 | 0.00 | 84 | 1059.1 |
| 20260504235203 | 8 | 22 | 6.4 | 0.0 | 0.00 | 0.00 | 0.00 | 84 | 1059.0 |
| 20260504235050 | 8 | 22 | 3.2 | 0.0 | 0.00 | 0.00 | 0.00 | 84 | 1059.1 |
| 20260504234945 | 8 | 0 | 9.7 | 0.0 | 0.00 | 0.00 | 0.00 | 84 | 1059.0 |
| 20260504234839 | 8 | 22 | 6.4 | 0.0 | 0.00 | 0.00 | 0.00 | 84 | 1059.1 |
| 20260504234733 | 8 | 22 | 9.7 | 0.0 | 0.00 | 0.00 | 0.00 | 84 | 1059.1 |
| 20260504234626 | 8 | 22 | 11.3 | 0.0 | 0.00 | 0.00 | 0.00 | 84 | 1059.0 |
| 20260504234458 | 8 | 45 | 11.3 | 0.0 | 0.00 | 0.00 | 0.00 | 84 | 1059.0 |
| 20260504234352 | 8 | 0 | 1.6 | 0.0 | 0.00 | 0.00 | 0.00 | 84 | 1059.1 |
| 20260504234238 | 8 | 45 | 6.4 | 0.0 | 0.00 | 0.00 | 0.00 | 84 | 1059.1 |
| 20260504234125 | 8 | 45 | 6.4 | 0.0 | 0.00 | 0.00 | 0.00 | 84 | 1059.1 |
| 20260504234012 | 8 | 22 | 6.4 | 0.0 | 0.00 | 0.00 | 0.00 | 84 | 1059.2 |
| 20260504233859 | 8 | 45 | 6.4 | 0.0 | 0.00 | 0.00 | 0.00 | 84 | 1059.1 |
| 20260504233745 | 8 | 22 | 9.7 | 0.0 | 0.00 | 0.00 | 0.00 | 84 | 1059.1 |
| 20260504233616 | 8 | 22 | 9.7 | 0.0 | 0.00 | 0.00 | 0.00 | 84 | 1059.2 |
| 20260504233503 | 8 | 45 | 0.0 | 0.0 | 0.00 | 0.00 | 0.00 | 84 | 1059.2 |
| 20260504233357 | 8 | 22 | 9.7 | 0.0 | 0.00 | 0.00 | 0.00 | 84 | 1059.2 |
| 20260504233251 | 8 | 22 | 6.4 | 0.0 | 0.00 | 0.00 | 0.00 | 84 | 1059.2 |
| 20260504233144 | 8 | 22 | 4.8 | 0.0 | 0.00 | 0.00 | 0.00 | 84 | 1059.2 |
| 20260504233014 | 8 | 22 | 8.0 | 0.0 | 0.00 | 0.00 | 0.00 | 84 | 1059.2 |
| 20260504232900 | 8 | 22 | 6.4 | 0.0 | 0.00 | 0.00 | 0.00 | 84 | 1059.3 |
| 20260504232754 | 8 | 45 | 8.0 | 0.0 | 0.00 | 0.00 | 0.00 | 84 | 1059.2 |
| 20260504232648 | 8 | 22 | 4.8 | 0.0 | 0.00 | 0.00 | 0.00 | 84 | 1059.2 |
| 20260504232533 | 8 | 22 | 6.4 | 0.0 | 0.00 | 0.00 | 0.00 | 84 | 1059.2 |
| 20260504232420 | 8 | 22 | 9.7 | 0.0 | 0.00 | 0.00 | 0.00 | 84 | 1059.3 |
| 20260504232316 | 8 | 0 | 0.0 | 0.0 | 0.00 | 0.00 | 0.00 | 84 | 1059.3 |
| 20260504232208 | 8 | 0 | 8.0 | 0.0 | 0.00 | 0.00 | 0.00 | 84 | 1059.2 |
| 20260504232047 | 8 | 22 | 8.0 | 0.0 | 0.00 | 0.00 | 0.00 | 84 | 1059.4 |
| 20260504231925 | 8 | 0 | 9.7 | 0.0 | 0.00 | 0.00 | 0.00 | 84 | 1059.3 |
| 20260504231811 | 8 | 0 | 0.0 | 0.0 | 0.00 | 0.00 | 0.00 | 84 | 1059.4 |
| 20260504231657 | 8 | 0 | 8.0 | 0.0 | 0.00 | 0.00 | 0.00 | 84 | 1059.4 |
| 20260504231551 | 8 | 22 | 6.4 | 0.0 | 0.00 | 0.00 | 0.00 | 84 | 1059.4 |
| 20260504231437 | 8 | 22 | 11.3 | 0.0 | 0.00 | 0.00 | 0.00 | 84 | 1059.4 |
| 20260504231315 | 8 | 45 | 3.2 | 0.0 | 0.00 | 0.00 | 0.00 | 84 | 1059.4 |
| 20260504231204 | 8 | 22 | 9.7 | 0.0 | 0.00 | 0.00 | 0.00 | 84 | 1059.5 |
| 20260504231050 | 8 | 22 | 8.0 | 0.0 | 0.00 | 0.00 | 0.00 | 84 | 1059.4 |
| 20260504230946 | 8 | 22 | 3.2 | 0.0 | 0.00 | 0.00 | 0.00 | 84 | 1059.5 |
| 20260504230842 | 8 | 22 | 17.7 | 0.0 | 0.00 | 0.00 | 0.00 | 84 | 1059.5 |
| 20260504230734 | 8 | 0 | 9.7 | 0.0 | 0.00 | 0.00 | 0.00 | 84 | 1059.4 |
| 20260504230612 | 8 | 22 | 4.8 | 0.0 | 0.00 | 0.00 | 0.00 | 84 | 1059.5 |
| 20260504230500 | 8 | 22 | 3.2 | 0.0 | 0.00 | 0.00 | 0.00 | 84 | 1059.6 |
| 20260504230346 | 8 | 0 | 8.0 | 0.0 | 0.00 | 0.00 | 0.00 | 84 | 1059.5 |
| 20260504230226 | 8 | 45 | 0.0 | 0.0 | 0.00 | 0.00 | 0.00 | 84 | 1059.6 |
| 20260504230113 | 8 | 67 | 0.0 | 0.0 | 0.00 | 0.00 | 0.00 | 84 | 1059.6 |
| 20260504230008 | 8 | 22 | 3.2 | 0.0 | 0.00 | 0.00 | 0.00 | 84 | 1059.6 |
| 20260504225857 | 8 | 22 | 3.2 | 0.0 | 0.00 | 0.00 | 0.00 | 84 | 1059.6 |
| 20260504225750 | 8 | 45 | 8.0 | 0.0 | 0.00 | 0.00 | 0.00 | 84 | 1059.6 |
| 20260504225645 | 8 | 22 | 9.7 | 0.0 | 0.00 | 0.00 | 0.00 | 84 | 1059.6 |
| 20260504225532 | 8 | 22 | 4.8 | 0.0 | 0.00 | 0.00 | 0.00 | 84 | 1059.6 |
| 20260504225426 | 8 | 22 | 0.0 | 0.0 | 0.00 | 0.00 | 0.00 | 84 | 1059.6 |
| 20260504225314 | 8 | 45 | 9.7 | 0.0 | 0.00 | 0.00 | 0.00 | 84 | 1059.6 |
| 20260504225201 | 8 | 45 | 8.0 | 0.0 | 0.00 | 0.00 | 0.00 | 84 | 1059.7 |
| 20260504225055 | 8 | 45 | 0.0 | 0.0 | 0.00 | 0.00 | 0.00 | 84 | 1059.7 |
| 20260504224950 | 8 | 45 | 0.0 | 0.0 | 0.00 | 0.00 | 0.00 | 84 | 1059.7 |
| 20260504224831 | 8 | 45 | 6.4 | 0.0 | 0.00 | 0.00 | 0.00 | 84 | 1059.6 |
| 20260504224724 | 8 | 22 | 6.4 | 0.0 | 0.00 | 0.00 | 0.00 | 84 | 1059.6 |
| 20260504224602 | 8 | 45 | 3.2 | 0.0 | 0.00 | 0.00 | 0.00 | 84 | 1059.7 |
| 20260504224449 | 8 | 67 | 4.8 | 0.0 | 0.00 | 0.00 | 0.00 | 84 | 1059.7 |
| 20260504224336 | 8 | 67 | 1.6 | 0.0 | 0.00 | 0.00 | 0.00 | 84 | 1059.7 |
| 20260504224214 | 8 | 22 | 6.4 | 0.0 | 0.00 | 0.00 | 0.00 | 84 | 1059.7 |
| 20260504224046 | 8 | 22 | 9.7 | 0.0 | 0.00 | 0.00 | 0.00 | 84 | 1059.7 |
| 20260504223935 | 8 | 45 | 3.2 | 0.0 | 0.00 | 0.00 | 0.00 | 84 | 1059.7 |
| 20260504223827 | 8 | 45 | 9.7 | 0.0 | 0.00 | 0.00 | 0.00 | 84 | 1059.7 |
| 20260504223716 | 8 | 67 | 0.0 | 0.0 | 0.00 | 0.00 | 0.00 | 84 | 1059.7 |
| 20260504223609 | 8 | 45 | 6.4 | 0.0 | 0.00 | 0.00 | 0.00 | 84 | 1059.7 |
| 20260504223456 | 8 | 22 | 8.0 | 0.0 | 0.00 | 0.00 | 0.00 | 84 | 1059.7 |
| 20260504223343 | 8 | 90 | 3.2 | 0.0 | 0.00 | 0.00 | 0.00 | 84 | 1059.7 |
| 20260504223233 | 8 | 45 | 8.0 | 0.0 | 0.00 | 0.00 | 0.00 | 84 | 1059.7 |
| 20260504223126 | 8 | 22 | 14.5 | 0.0 | 0.00 | 0.00 | 0.00 | 84 | 1059.7 |
| 20260504223019 | 8 | 45 | 0.0 | 0.0 | 0.00 | 0.00 | 0.00 | 84 | 1059.7 |
| 20260504222901 | 8 | 45 | 4.8 | 0.0 | 0.00 | 0.00 | 0.00 | 84 | 1059.7 |
| 20260504222752 | 8 | 67 | 6.4 | 0.0 | 0.00 | 0.00 | 0.00 | 84 | 1059.7 |
| 20260504222633 | 8 | 67 | 9.7 | 0.0 | 0.00 | 0.00 | 0.00 | 84 | 1059.7 |
| 20260504222527 | 8 | 45 | 11.3 | 0.0 | 0.00 | 0.00 | 0.00 | 84 | 1059.6 |
| 20260504222414 | 8 | 22 | 3.2 | 0.0 | 0.00 | 0.00 | 0.00 | 84 | 1059.6 |
| 20260504222301 | 8 | 22 | 0.0 | 0.0 | 0.00 | 0.00 | 0.00 | 84 | 1059.7 |
| 20260504222148 | 8 | 22 | 9.7 | 0.0 | 0.00 | 0.00 | 0.00 | 84 | 1059.7 |
| 20260504222027 | 8 | 22 | 8.0 | 0.0 | 0.00 | 0.00 | 0.00 | 84 | 1059.7 |
| 20260504221914 | 8 | 22 | 8.0 | 0.0 | 0.00 | 0.00 | 0.00 | 84 | 1059.7 |
| 20260504221752 | 8 | 45 | 3.2 | 0.0 | 0.00 | 0.00 | 0.00 | 84 | 1059.7 |
| 20260504221633 | 8 | 45 | 16.1 | 0.0 | 0.00 | 0.00 | 0.00 | 84 | 1059.6 |
| 20260504221527 | 8 | 22 | 9.7 | 0.0 | 0.00 | 0.00 | 0.00 | 84 | 1059.6 |
| 20260504221414 | 8 | 22 | 6.4 | 0.0 | 0.00 | 0.00 | 0.00 | 84 | 1059.5 |
| 20260504221259 | 8 | 45 | 4.8 | 0.0 | 0.00 | 0.00 | 0.00 | 84 | 1059.6 |
| 20260504221131 | 8 | 22 | 9.7 | 0.0 | 0.00 | 0.00 | 0.00 | 84 | 1059.7 |
| 20260504220953 | 8 | 22 | 6.4 | 0.0 | 0.00 | 0.00 | 0.00 | 84 | 1059.6 |
| 20260504220840 | 8 | 45 | 6.4 | 0.0 | 0.00 | 0.00 | 0.00 | 84 | 1059.7 |
| 20260504220735 | 8 | 45 | 11.3 | 0.0 | 0.00 | 0.00 | 0.00 | 84 | 1059.7 |
| 20260504220614 | 8 | 45 | 8.0 | 0.0 | 0.00 | 0.00 | 0.00 | 84 | 1059.7 |
| 20260504220500 | 8 | 0 | 11.3 | 0.0 | 0.00 | 0.00 | 0.00 | 84 | 1059.7 |
| 20260504220348 | 8 | 315 | 11.3 | 0.0 | 0.00 | 0.00 | 0.00 | 84 | 1059.7 |
| 20260504220234 | 8 | 45 | 9.7 | 0.0 | 0.00 | 0.00 | 0.00 | 84 | 1059.8 |
| 20260504220116 | 8 | 0 | 6.4 | 0.0 | 0.00 | 0.00 | 0.00 | 85 | 1059.7 |
| 20260504220008 | 8 | 22 | 6.4 | 0.0 | 0.00 | 0.00 | 0.00 | 85 | 1059.8 |
| 20260504215855 | 8 | 22 | 9.7 | 0.0 | 0.00 | 0.00 | 0.00 | 85 | 1059.8 |
| 20260504215750 | 8 | 22 | 0.0 | 0.0 | 0.00 | 0.00 | 0.00 | 85 | 1059.8 |
| 20260504215621 | 8 | 45 | 8.0 | 0.0 | 0.00 | 0.00 | 0.00 | 85 | 1059.8 |
| 20260504215508 | 8 | 45 | 9.7 | 0.0 | 0.00 | 0.00 | 0.00 | 85 | 1059.8 |
| 20260504215356 | 8 | 45 | 0.0 | 0.0 | 0.00 | 0.00 | 0.00 | 85 | 1059.9 |
| 20260504215241 | 8 | 67 | 6.4 | 0.0 | 0.00 | 0.00 | 0.00 | 85 | 1059.9 |
| 20260504215129 | 8 | 22 | 6.4 | 0.0 | 0.00 | 0.00 | 0.00 | 85 | 1059.9 |
| 20260504215016 | 8 | 67 | 6.4 | 0.0 | 0.00 | 0.00 | 0.00 | 85 | 1059.9 |
| 20260504214910 | 8 | 22 | 6.4 | 0.0 | 0.00 | 0.00 | 0.00 | 85 | 1059.8 |
| 20260504214741 | 8 | 22 | 4.8 | 0.0 | 0.00 | 0.00 | 0.00 | 85 | 1059.9 |
| 20260504214619 | 8 | 0 | 6.4 | 0.0 | 0.00 | 0.00 | 0.00 | 85 | 1059.9 |
| 20260504214458 | 8 | 22 | 3.2 | 0.0 | 0.00 | 0.00 | 0.00 | 85 | 1059.9 |
| 20260504214345 | 8 | 45 | 9.7 | 0.0 | 0.00 | 0.00 | 0.00 | 85 | 1059.9 |
| 20260504214224 | 8 | 22 | 0.0 | 0.0 | 0.00 | 0.00 | 0.00 | 85 | 1059.9 |
| 20260504214111 | 9 | 45 | 4.8 | 0.0 | 0.00 | 0.00 | 0.00 | 85 | 1059.9 |
| 20260504213957 | 8 | 22 | 8.0 | 0.0 | 0.00 | 0.00 | 0.00 | 85 | 1059.9 |
| 20260504213838 | 8 | 67 | 8.0 | 0.0 | 0.00 | 0.00 | 0.00 | 85 | 1059.9 |
| 20260504213732 | 9 | 45 | 0.0 | 0.0 | 0.00 | 0.00 | 0.00 | 85 | 1059.9 |
| 20260504213618 | 9 | 22 | 9.7 | 0.0 | 0.00 | 0.00 | 0.00 | 85 | 1059.9 |
| 20260504213459 | 9 | 22 | 12.9 | 0.0 | 0.00 | 0.00 | 0.00 | 84 | 1059.9 |
| 20260504213353 | 8 | 45 | 6.4 | 0.0 | 0.00 | 0.00 | 0.00 | 84 | 1059.9 |
| 20260504213247 | 9 | 45 | 3.2 | 0.0 | 0.00 | 0.00 | 0.00 | 84 | 1059.9 |
| 20260504213134 | 9 | 0 | 0.0 | 0.0 | 0.00 | 0.00 | 0.00 | 84 | 1059.9 |
| 20260504213021 | 9 | 45 | 3.2 | 0.0 | 0.00 | 0.00 | 0.00 | 84 | 1059.9 |
| 20260504212859 | 9 | 45 | 4.8 | 0.0 | 0.00 | 0.00 | 0.00 | 84 | 1059.9 |
| 20260504212738 | 9 | 45 | 12.9 | 0.0 | 0.00 | 0.00 | 0.00 | 84 | 1059.9 |
| 20260504212625 | 8 | 22 | 0.0 | 0.0 | 0.00 | 0.00 | 0.00 | 84 | 1060.0 |
| 20260504212512 | 9 | 22 | 4.8 | 0.0 | 0.00 | 0.00 | 0.00 | 84 | 1059.9 |
| 20260504212350 | 9 | 22 | 9.7 | 0.0 | 0.00 | 0.00 | 0.00 | 84 | 1059.9 |
| 20260504212221 | 9 | 337 | 9.7 | 0.0 | 0.00 | 0.00 | 0.00 | 84 | 1060.0 |
| 20260504212101 | 9 | 22 | 1.6 | 0.0 | 0.00 | 0.00 | 0.00 | 84 | 1060.0 |
| 20260504211955 | 9 | 22 | 6.4 | 0.0 | 0.00 | 0.00 | 0.00 | 84 | 1060.0 |
| 20260504211850 | 9 | 22 | 8.0 | 0.0 | 0.00 | 0.00 | 0.00 | 84 | 1060.0 |
| 20260504211729 | 9 | 22 | 8.0 | 0.0 | 0.00 | 0.00 | 0.00 | 84 | 1059.9 |
| 20260504211608 | 9 | 0 | 9.7 | 0.0 | 0.00 | 0.00 | 0.00 | 84 | 1060.0 |
| 20260504211504 | 9 | 22 | 3.2 | 0.0 | 0.00 | 0.00 | 0.00 | 84 | 1060.0 |
| 20260504211358 | 9 | 22 | 9.7 | 0.0 | 0.00 | 0.00 | 0.00 | 84 | 1060.0 |
| 20260504211254 | 9 | 22 | 3.2 | 0.0 | 0.00 | 0.00 | 0.00 | 84 | 1060.0 |
| 20260504211147 | 9 | 22 | 3.2 | 0.0 | 0.00 | 0.00 | 0.00 | 84 | 1060.0 |
| 20260504211021 | 9 | 22 | 3.2 | 0.0 | 0.00 | 0.00 | 0.00 | 84 | 1059.9 |
| 20260504210913 | 9 | 45 | 8.0 | 0.0 | 0.00 | 0.00 | 0.00 | 84 | 1059.9 |
| 20260504210801 | 9 | 22 | 8.0 | 0.0 | 0.00 | 0.00 | 0.00 | 84 | 1060.0 |
| 20260504210656 | 9 | 22 | 6.4 | 0.0 | 0.00 | 0.00 | 0.00 | 84 | 1060.0 |
| 20260504210550 | 9 | 0 | 6.4 | 0.0 | 0.00 | 0.00 | 0.00 | 84 | 1059.9 |
| 20260504210436 | 9 | 0 | 8.0 | 0.0 | 0.00 | 0.00 | 0.00 | 85 | 1059.9 |
| 20260504210318 | 9 | 22 | 8.0 | 0.0 | 0.00 | 0.00 | 0.00 | 85 | 1059.9 |
| 20260504210210 | 9 | 22 | 6.4 | 0.0 | 0.00 | 0.00 | 0.00 | 85 | 1059.9 |
| 20260504210041 | 8 | 0 | 6.4 | 0.0 | 0.00 | 0.00 | 0.00 | 85 | 1059.9 |
| 20260504205920 | 9 | 0 | 8.0 | 0.0 | 0.00 | 0.00 | 0.00 | 85 | 1059.8 |
| 20260504205809 | 8 | 0 | 6.4 | 0.0 | 0.00 | 0.00 | 0.00 | 85 | 1059.9 |
| 20260504205701 | 9 | 22 | 1.6 | 0.0 | 0.00 | 0.00 | 0.00 | 85 | 1059.9 |
| 20260504205542 | 9 | 0 | 11.3 | 0.0 | 0.00 | 0.00 | 0.00 | 85 | 1059.9 |
| 20260504205435 | 8 | 45 | 6.4 | 0.0 | 0.00 | 0.00 | 0.00 | 85 | 1059.8 |
| 20260504205325 | 8 | 22 | 9.7 | 0.0 | 0.00 | 0.00 | 0.00 | 85 | 1059.8 |
| 20260504205218 | 8 | 22 | 8.0 | 0.0 | 0.00 | 0.00 | 0.00 | 85 | 1059.9 |
| 20260504205113 | 8 | 45 | 3.2 | 0.0 | 0.00 | 0.00 | 0.00 | 85 | 1059.9 |
| 20260504205001 | 8 | 22 | 6.4 | 0.0 | 0.00 | 0.00 | 0.00 | 85 | 1059.8 |
| 20260504204839 | 8 | 22 | 6.4 | 0.0 | 0.00 | 0.00 | 0.00 | 85 | 1059.9 |
| 20260504204726 | 8 | 22 | 12.9 | 0.0 | 0.00 | 0.00 | 0.00 | 85 | 1059.9 |
| 20260504204612 | 8 | 22 | 0.0 | 0.0 | 0.00 | 0.00 | 0.00 | 85 | 1059.8 |
| 20260504204451 | 8 | 22 | 4.8 | 0.0 | 0.00 | 0.00 | 0.00 | 85 | 1059.9 |
| 20260504204338 | 8 | 22 | 0.0 | 0.0 | 0.00 | 0.00 | 0.00 | 85 | 1059.9 |
| 20260504204234 | 8 | 0 | 4.8 | 0.0 | 0.00 | 0.00 | 0.00 | 85 | 1059.9 |
| 20260504204127 | 8 | 45 | 11.3 | 0.0 | 0.00 | 0.00 | 0.00 | 85 | 1059.7 |
| 20260504204006 | 8 | 22 | 8.0 | 0.0 | 0.00 | 0.00 | 0.00 | 85 | 1059.8 |
| 20260504203845 | 8 | 45 | 6.4 | 0.0 | 0.00 | 0.00 | 0.00 | 85 | 1059.8 |
| 20260504203724 | 8 | 22 | 3.2 | 0.0 | 0.00 | 0.00 | 0.00 | 85 | 1059.7 |
| 20260504203621 | 8 | 90 | 0.0 | 0.0 | 0.00 | 0.00 | 0.00 | 85 | 1059.8 |
| 20260504203506 | 8 | 45 | 6.4 | 0.0 | 0.00 | 0.00 | 0.00 | 86 | 1059.8 |
| 20260504203353 | 8 | 45 | 8.0 | 0.0 | 0.00 | 0.00 | 0.00 | 86 | 1059.7 |
| 20260504203248 | 8 | 22 | 4.8 | 0.0 | 0.00 | 0.00 | 0.00 | 86 | 1059.8 |
| 20260504203126 | 8 | 22 | 4.8 | 0.0 | 0.00 | 0.00 | 0.00 | 86 | 1059.8 |
| 20260504203006 | 8 | 22 | 9.7 | 0.0 | 0.00 | 0.00 | 0.00 | 86 | 1059.7 |
| 20260504202852 | 8 | 22 | 11.3 | 0.0 | 0.00 | 0.00 | 0.00 | 86 | 1059.7 |
| 20260504202730 | 8 | 0 | 3.2 | 0.0 | 0.00 | 0.00 | 0.00 | 86 | 1059.8 |
| 20260504202609 | 8 | 45 | 4.8 | 0.0 | 0.00 | 0.00 | 0.00 | 87 | 1059.8 |
| 20260504202448 | 8 | 45 | 0.0 | 0.0 | 0.00 | 0.00 | 0.00 | 87 | 1059.8 |
| 20260504202335 | 8 | 22 | 9.7 | 0.0 | 0.00 | 0.00 | 0.00 | 87 | 1059.8 |
| 20260504202232 | 8 | 45 | 4.8 | 0.0 | 0.00 | 0.00 | 0.00 | 87 | 1059.8 |
| 20260504202125 | 8 | 22 | 11.3 | 0.0 | 0.00 | 0.00 | 0.00 | 87 | 1059.8 |
| 20260504202005 | 8 | 22 | 0.0 | 0.0 | 0.00 | 0.00 | 0.00 | 87 | 1059.9 |
| 20260504201901 | 8 | 22 | 3.2 | 0.0 | 0.00 | 0.00 | 0.00 | 87 | 1059.9 |
| 20260504201755 | 8 | 45 | 4.8 | 0.0 | 0.00 | 0.00 | 0.00 | 87 | 1059.9 |
| 20260504201649 | 8 | 45 | 9.7 | 0.0 | 0.00 | 0.00 | 0.00 | 87 | 1059.9 |
| 20260504201538 | 8 | 22 | 14.5 | 0.0 | 0.00 | 0.00 | 0.00 | 87 | 1059.8 |
| 20260504201431 | 8 | 22 | 6.4 | 0.0 | 0.00 | 0.00 | 0.00 | 87 | 1059.9 |
| 20260504201318 | 8 | 22 | 12.9 | 0.0 | 0.00 | 0.00 | 0.00 | 87 | 1059.9 |
| 20260504201213 | 8 | 22 | 1.6 | 0.0 | 0.00 | 0.00 | 0.00 | 87 | 1059.9 |
| 20260504201100 | 8 | 22 | 4.8 | 0.0 | 0.00 | 0.00 | 0.00 | 87 | 1059.9 |
| 20260504200938 | 8 | 22 | 9.7 | 0.0 | 0.00 | 0.00 | 0.00 | 87 | 1059.8 |
| 20260504200817 | 8 | 45 | 4.8 | 0.0 | 0.00 | 0.00 | 0.00 | 87 | 1059.8 |
| 20260504200656 | 8 | 67 | 4.8 | 0.0 | 0.00 | 0.00 | 0.00 | 87 | 1059.8 |
| 20260504200543 | 8 | 45 | 4.8 | 0.0 | 0.00 | 0.00 | 0.00 | 87 | 1059.8 |
| 20260504200437 | 8 | 22 | 11.3 | 0.0 | 0.00 | 0.00 | 0.00 | 87 | 1059.7 |
| 20260504200309 | 8 | 22 | 0.0 | 0.0 | 0.00 | 0.00 | 0.00 | 87 | 1059.7 |
| 20260504200206 | 8 | 0 | 8.0 | 0.0 | 0.00 | 0.00 | 0.00 | 87 | 1059.6 |
| 20260504200058 | 8 | 0 | 4.8 | 0.0 | 0.00 | 0.00 | 0.00 | 87 | 1059.7 |
| 20260504195937 | 8 | 45 | 6.4 | 0.0 | 0.00 | 0.00 | 0.00 | 87 | 1059.6 |
| 20260504195824 | 8 | 22 | 11.3 | 0.0 | 0.00 | 0.00 | 0.00 | 87 | 1059.7 |
| 20260504195703 | 8 | 22 | 9.7 | 0.0 | 0.00 | 0.00 | 0.00 | 87 | 1059.6 |
| 20260504195558 | 8 | 45 | 4.8 | 0.0 | 0.00 | 0.00 | 0.00 | 87 | 1059.6 |
| 20260504195445 | 8 | 45 | 11.3 | 0.0 | 0.00 | 0.00 | 0.00 | 87 | 1059.7 |
| 20260504195340 | 8 | 22 | 8.0 | 0.0 | 0.00 | 0.00 | 0.00 | 87 | 1059.7 |
| 20260504195227 | 8 | 45 | 14.5 | 0.0 | 0.00 | 0.00 | 0.00 | 87 | 1059.6 |
| 20260504195113 | 8 | 45 | 9.7 | 0.0 | 0.00 | 0.00 | 0.00 | 88 | 1059.6 |
| 20260504195000 | 8 | 22 | 4.8 | 0.0 | 0.00 | 0.00 | 0.00 | 88 | 1059.6 |
| 20260504194839 | 8 | 0 | 8.0 | 0.0 | 0.00 | 0.00 | 0.00 | 88 | 1059.7 |
| 20260504194717 | 8 | 45 | 0.0 | 0.0 | 0.00 | 0.00 | 0.00 | 88 | 1059.6 |
| 20260504194549 | 8 | 45 | 14.5 | 0.0 | 0.00 | 0.00 | 0.00 | 88 | 1059.7 |
| 20260504194446 | 8 | 22 | 8.0 | 0.0 | 0.00 | 0.00 | 0.00 | 88 | 1059.6 |
| 20260504194340 | 8 | 22 | 8.0 | 0.0 | 0.00 | 0.00 | 0.00 | 88 | 1059.6 |
| 20260504194235 | 8 | 22 | 8.0 | 0.0 | 0.00 | 0.00 | 0.00 | 88 | 1059.6 |
| 20260504194128 | 8 | 22 | 4.8 | 0.0 | 0.00 | 0.00 | 0.00 | 88 | 1059.7 |
| 20260504194016 | 8 | 45 | 9.7 | 0.0 | 0.00 | 0.00 | 0.00 | 88 | 1059.6 |
| 20260504193910 | 8 | 0 | 9.7 | 0.0 | 0.00 | 0.00 | 0.00 | 88 | 1059.6 |
| 20260504193751 | 8 | 45 | 6.4 | 0.0 | 0.00 | 0.00 | 0.00 | 88 | 1059.6 |
| 20260504193645 | 8 | 22 | 3.2 | 0.0 | 0.00 | 0.00 | 0.00 | 88 | 1059.5 |
| 20260504193531 | 8 | 22 | 6.4 | 0.0 | 0.00 | 0.00 | 0.00 | 87 | 1059.6 |
| 20260504193410 | 8 | 22 | 8.0 | 0.0 | 0.00 | 0.00 | 0.00 | 87 | 1059.5 |
| 20260504193304 | 8 | 22 | 0.0 | 0.0 | 0.00 | 0.00 | 0.00 | 87 | 1059.5 |
| 20260504193143 | 8 | 67 | 4.8 | 0.0 | 0.00 | 0.00 | 0.00 | 87 | 1059.6 |
| 20260504192926 | 8 | 22 | 0.0 | 0.0 | 0.00 | 0.00 | 0.00 | 87 | 1059.5 |
| 20260504192821 | 8 | 45 | 6.4 | 0.0 | 0.00 | 0.00 | 0.00 | 86 | 1059.5 |
| 20260504192715 | 8 | 0 | 6.4 | 0.0 | 0.00 | 0.00 | 0.00 | 86 | 1059.5 |
| 20260504192602 | 8 | 22 | 0.0 | 0.0 | 0.00 | 0.00 | 0.00 | 86 | 1059.4 |
| 20260504192441 | 8 | 45 | 9.7 | 0.0 | 0.00 | 0.00 | 0.00 | 86 | 1059.4 |
| 20260504192328 | 8 | 45 | 0.0 | 0.0 | 0.00 | 0.00 | 0.00 | 86 | 1059.3 |
| 20260504192215 | 8 | 22 | 0.0 | 0.0 | 0.00 | 0.00 | 0.00 | 86 | 1059.4 |
| 20260504192102 | 8 | 22 | 6.4 | 0.0 | 0.00 | 0.00 | 0.00 | 86 | 1059.4 |
| 20260504191957 | 8 | 45 | 8.0 | 0.0 | 0.00 | 0.00 | 0.00 | 86 | 1059.4 |
| 20260504191844 | 8 | 45 | 0.0 | 0.0 | 0.00 | 0.00 | 0.00 | 86 | 1059.3 |
| 20260504191730 | 8 | 45 | 3.2 | 0.0 | 0.00 | 0.00 | 0.00 | 85 | 1059.4 |
| 20260504191619 | 8 | 22 | 6.4 | 0.0 | 0.00 | 0.00 | 0.00 | 85 | 1059.4 |
| 20260504191512 | 8 | 22 | 0.0 | 0.0 | 0.00 | 0.00 | 0.00 | 85 | 1059.4 |
| 20260504191358 | 8 | 45 | 0.0 | 0.0 | 0.00 | 0.00 | 0.00 | 85 | 1059.4 |
| 20260504191229 | 8 | 45 | 4.8 | 0.0 | 0.00 | 0.00 | 0.00 | 85 | 1059.4 |
| 20260504191109 | 8 | 45 | 0.0 | 0.0 | 0.00 | 0.00 | 0.00 | 85 | 1059.4 |
| 20260504190955 | 8 | 45 | 0.0 | 0.0 | 0.00 | 0.00 | 0.00 | 85 | 1059.4 |
| 20260504190826 | 8 | 22 | 6.4 | 0.0 | 0.00 | 0.00 | 0.00 | 84 | 1059.4 |
| 20260504190713 | 8 | 22 | 8.0 | 0.0 | 0.00 | 0.00 | 0.00 | 84 | 1059.3 |
| 20260504190607 | 8 | 45 | 0.0 | 0.0 | 0.00 | 0.00 | 0.00 | 84 | 1059.2 |
| 20260504190455 | 8 | 0 | 3.2 | 0.0 | 0.00 | 0.00 | 0.00 | 84 | 1059.3 |
| 20260504190349 | 8 | 22 | 0.0 | 0.0 | 0.00 | 0.00 | 0.00 | 84 | 1059.4 |
| 20260504190228 | 8 | 22 | 3.2 | 0.0 | 0.00 | 0.00 | 0.00 | 84 | 1059.3 |
| 20260504190114 | 8 | 45 | 3.2 | 0.0 | 0.00 | 0.00 | 0.00 | 84 | 1059.4 |
| 20260504190008 | 9 | 22 | 6.4 | 0.0 | 0.00 | 0.00 | 0.00 | 84 | 1059.3 |
| 20260504185853 | 9 | 0 | 9.7 | 0.0 | 0.00 | 0.00 | 0.00 | 84 | 1059.4 |
| 20260504185739 | 9 | 45 | 0.0 | 0.0 | 0.00 | 0.00 | 0.00 | 83 | 1059.4 |
| 20260504185608 | 9 | 22 | 9.7 | 0.0 | 0.00 | 0.00 | 0.00 | 83 | 1059.3 |
| 20260504185449 | 9 | 0 | 8.0 | 0.0 | 0.00 | 0.00 | 0.00 | 83 | 1059.3 |
| 20260504185340 | 9 | 45 | 9.7 | 0.0 | 0.00 | 0.00 | 0.00 | 83 | 1059.4 |
| 20260504185226 | 9 | 22 | 9.7 | 0.0 | 0.00 | 0.00 | 0.00 | 83 | 1059.3 |
| 20260504185120 | 9 | 45 | 9.7 | 0.0 | 0.00 | 0.00 | 0.00 | 83 | 1059.3 |
| 20260504185013 | 9 | 67 | 8.0 | 0.0 | 0.00 | 0.00 | 0.00 | 82 | 1059.3 |
| 20260504184901 | 9 | 45 | 4.8 | 0.0 | 0.00 | 0.00 | 0.00 | 82 | 1059.3 |
| 20260504184754 | 10 | 67 | 0.0 | 0.0 | 0.00 | 0.00 | 0.00 | 82 | 1059.4 |
| 20260504184633 | 10 | 45 | 9.7 | 0.0 | 0.00 | 0.00 | 0.00 | 81 | 1059.3 |
| 20260504184512 | 10 | 45 | 3.2 | 0.0 | 0.00 | 0.00 | 0.00 | 81 | 1059.3 |
| 20260504184352 | 10 | 45 | 3.2 | 0.0 | 0.00 | 0.00 | 0.00 | 81 | 1059.3 |
| 20260504184246 | 10 | 45 | 6.4 | 0.0 | 0.00 | 0.00 | 0.00 | 81 | 1059.3 |
| 20260504184132 | 10 | 45 | 4.8 | 0.0 | 0.00 | 0.00 | 0.00 | 80 | 1059.3 |
| 20260504184028 | 10 | 45 | 6.4 | 0.0 | 0.00 | 0.00 | 0.00 | 80 | 1059.3 |
| 20260504183922 | 10 | 45 | 6.4 | 0.0 | 0.00 | 0.00 | 0.00 | 80 | 1059.3 |
| 20260504183816 | 10 | 22 | 11.3 | 0.0 | 0.00 | 0.00 | 0.00 | 80 | 1059.2 |
| 20260504183648 | 10 | 67 | 4.8 | 0.0 | 0.00 | 0.00 | 0.00 | 79 | 1059.2 |
| 20260504183545 | 10 | 0 | 0.0 | 0.0 | 0.00 | 0.00 | 0.00 | 79 | 1059.1 |
| 20260504183439 | 10 | 45 | 8.0 | 0.0 | 0.00 | 0.00 | 0.00 | 79 | 1059.2 |
| 20260504183333 | 10 | 22 | 8.0 | 0.0 | 0.00 | 0.00 | 0.00 | 79 | 1059.1 |
| 20260504183227 | 10 | 0 | 8.0 | 0.0 | 0.00 | 0.00 | 0.00 | 79 | 1059.1 |
| 20260504183117 | 11 | 45 | 1.6 | 0.0 | 0.00 | 0.00 | 0.00 | 79 | 1059.2 |
| 20260504183009 | 11 | 90 | 0.0 | 0.0 | 0.00 | 0.00 | 0.00 | 79 | 1059.2 |
| 20260504182848 | 11 | 45 | 6.4 | 0.0 | 0.00 | 0.00 | 0.00 | 78 | 1059.2 |
| 20260504182719 | 11 | 67 | 8.0 | 0.0 | 0.00 | 0.00 | 0.00 | 78 | 1059.2 |
| 20260504182557 | 11 | 22 | 3.2 | 0.0 | 0.00 | 0.00 | 0.00 | 78 | 1059.2 |
| 20260504182444 | 11 | 0 | 3.2 | 0.0 | 0.00 | 0.00 | 0.00 | 78 | 1059.1 |
| 20260504182338 | 11 | 45 | 3.2 | 0.0 | 0.00 | 0.00 | 0.00 | 78 | 1059.2 |
| 20260504182233 | 11 | 22 | 6.4 | 0.0 | 0.00 | 0.00 | 0.00 | 78 | 1059.2 |
| 20260504182126 | 11 | 67 | 8.0 | 0.0 | 0.00 | 0.00 | 0.00 | 78 | 1059.3 |
| 20260504182019 | 11 | 0 | 0.0 | 0.0 | 0.00 | 0.00 | 0.00 | 78 | 1059.2 |
| 20260504181906 | 11 | 22 | 6.4 | 0.0 | 0.00 | 0.00 | 0.00 | 77 | 1059.2 |
| 20260504181743 | 11 | 45 | 4.8 | 0.0 | 0.00 | 0.00 | 0.00 | 77 | 1059.1 |
| 20260504181629 | 11 | 67 | 11.3 | 0.0 | 0.00 | 0.00 | 0.00 | 78 | 1059.1 |
| 20260504181506 | 11 | 67 | 6.4 | 0.0 | 0.00 | 0.00 | 0.00 | 78 | 1059.1 |
| 20260504181353 | 11 | 45 | 6.4 | 0.0 | 0.00 | 0.00 | 0.00 | 78 | 1059.2 |
| 20260504181239 | 11 | 45 | 14.5 | 0.0 | 0.00 | 0.00 | 0.00 | 78 | 1059.1 |
| 20260504181125 | 11 | 67 | 9.7 | 0.0 | 0.00 | 0.00 | 0.00 | 78 | 1059.1 |
| 20260504181010 | 11 | 22 | 9.7 | 0.0 | 0.00 | 0.00 | 0.00 | 78 | 1059.1 |
| 20260504180855 | 11 | 0 | 17.7 | 0.0 | 0.00 | 0.00 | 0.00 | 78 | 1059.1 |
| 20260504180741 | 11 | 337 | 4.8 | 0.0 | 0.00 | 0.00 | 0.00 | 78 | 1059.1 |
| 20260504180635 | 11 | 0 | 9.7 | 0.0 | 0.00 | 0.00 | 0.00 | 78 | 1059.0 |
| 20260504180529 | 11 | 22 | 3.2 | 0.0 | 0.00 | 0.00 | 0.00 | 78 | 1059.0 |
| 20260504180423 | 11 | 22 | 8.0 | 0.0 | 0.00 | 0.00 | 0.00 | 77 | 1059.1 |
| 20260504180317 | 11 | 22 | 12.9 | 0.0 | 0.00 | 0.00 | 0.00 | 77 | 1059.2 |
| 20260504180212 | 11 | 22 | 9.7 | 0.0 | 0.00 | 0.00 | 0.00 | 77 | 1059.0 |
| 20260504180105 | 11 | 22 | 8.0 | 0.0 | 0.00 | 0.00 | 0.00 | 77 | 1059.1 |
| 20260504180000 | 11 | 0 | 14.5 | 0.0 | 0.00 | 0.05 | 0.00 | 77 | 1059.1 |
| 20260504175852 | 11 | 22 | 3.2 | 0.0 | 0.00 | 0.05 | 0.00 | 77 | 1059.1 |
| 20260504175731 | 11 | 22 | 6.4 | 0.0 | 0.00 | 0.05 | 0.00 | 77 | 1059.2 |
| 20260504175625 | 11 | 45 | 6.4 | 0.0 | 0.00 | 0.05 | 0.00 | 77 | 1059.2 |
| 20260504175513 | 11 | 45 | 9.7 | 0.0 | 0.00 | 0.05 | 0.00 | 77 | 1059.2 |
| 20260504175404 | 11 | 22 | 4.8 | 0.0 | 0.00 | 0.05 | 0.00 | 76 | 1059.2 |
| 20260504175251 | 11 | 22 | 11.3 | 0.0 | 0.00 | 0.05 | 0.00 | 76 | 1059.2 |
| 20260504175146 | 11 | 22 | 9.7 | 0.0 | 0.00 | 0.05 | 0.00 | 76 | 1059.3 |
| 20260504175039 | 11 | 45 | 11.3 | 0.0 | 0.00 | 0.05 | 0.00 | 76 | 1059.3 |
| 20260504174934 | 11 | 0 | 9.7 | 0.0 | 0.00 | 0.05 | 0.00 | 76 | 1059.3 |
| 20260504174828 | 11 | 45 | 12.9 | 0.0 | 0.00 | 0.05 | 0.00 | 76 | 1059.2 |
| 20260504174656 | 11 | 0 | 3.2 | 0.0 | 0.00 | 0.05 | 0.00 | 76 | 1059.3 |
| 20260504174543 | 11 | 22 | 6.4 | 0.0 | 0.00 | 0.05 | 0.00 | 76 | 1059.3 |
| 20260504174437 | 11 | 0 | 14.5 | 0.0 | 0.00 | 0.05 | 0.00 | 76 | 1059.4 |
| 20260504174332 | 11 | 45 | 12.9 | 0.0 | 0.00 | 0.05 | 0.00 | 76 | 1059.3 |
| 20260504174212 | 11 | 337 | 6.4 | 0.0 | 0.00 | 0.05 | 0.00 | 76 | 1059.4 |
| 20260504174058 | 11 | 0 | 4.8 | 0.0 | 0.00 | 0.05 | 0.00 | 76 | 1059.3 |
| 20260504173945 | 11 | 45 | 14.5 | 0.0 | 0.00 | 0.05 | 0.00 | 76 | 1059.3 |
| 20260504173839 | 11 | 45 | 12.9 | 0.0 | 0.00 | 0.05 | 0.00 | 76 | 1059.4 |
| 20260504173710 | 11 | 22 | 8.0 | 0.0 | 0.00 | 0.05 | 0.00 | 76 | 1059.4 |
| 20260504173557 | 11 | 0 | 14.5 | 0.0 | 0.00 | 0.05 | 0.00 | 76 | 1059.3 |
| 20260504173436 | 11 | 0 | 4.8 | 0.0 | 0.00 | 0.05 | 0.00 | 76 | 1059.3 |
| 20260504173323 | 11 | 0 | 8.0 | 0.0 | 0.00 | 0.05 | 0.00 | 76 | 1059.3 |
| 20260504173209 | 11 | 45 | 8.0 | 0.0 | 0.00 | 0.05 | 0.00 | 76 | 1059.3 |
| 20260504173041 | 11 | 45 | 8.0 | 0.0 | 0.00 | 0.05 | 0.00 | 75 | 1059.2 |
| 20260504172936 | 11 | 67 | 9.7 | 0.0 | 0.00 | 0.05 | 0.00 | 75 | 1059.2 |
| 20260504172814 | 12 | 22 | 11.3 | 0.0 | 0.00 | 0.05 | 0.00 | 75 | 1059.2 |
| 20260504172700 | 12 | 45 | 14.5 | 0.0 | 0.00 | 0.05 | 0.00 | 75 | 1059.2 |
| 20260504172549 | 12 | 22 | 11.3 | 0.0 | 0.00 | 0.05 | 0.00 | 75 | 1059.2 |
| 20260504172443 | 12 | 0 | 4.8 | 0.0 | 0.00 | 0.05 | 0.00 | 74 | 1059.2 |
| 20260504172321 | 12 | 22 | 11.3 | 0.0 | 0.00 | 0.05 | 0.00 | 74 | 1059.1 |
| 20260504172200 | 12 | 22 | 11.3 | 0.0 | 0.00 | 0.05 | 0.00 | 74 | 1059.1 |
| 20260504172047 | 12 | 0 | 8.0 | 0.0 | 0.00 | 0.05 | 0.00 | 74 | 1059.1 |
| 20260504171942 | 12 | 22 | 11.3 | 0.0 | 0.00 | 0.05 | 0.00 | 74 | 1059.1 |
| 20260504171829 | 12 | 45 | 14.5 | 0.0 | 0.00 | 0.05 | 0.00 | 74 | 1059.1 |
| 20260504171708 | 12 | 22 | 4.8 | 0.0 | 0.00 | 0.05 | 0.00 | 74 | 1059.1 |
| 20260504171539 | 12 | 22 | 8.0 | 0.0 | 0.00 | 0.05 | 0.00 | 73 | 1059.1 |
| 20260504171425 | 12 | 0 | 9.7 | 0.0 | 0.00 | 0.05 | 0.00 | 74 | 1059.1 |
| 20260504171312 | 12 | 45 | 12.9 | 0.0 | 0.00 | 0.05 | 0.00 | 74 | 1059.1 |
| 20260504171158 | 12 | 0 | 4.8 | 0.0 | 0.00 | 0.05 | 0.00 | 74 | 1059.1 |
| 20260504171045 | 12 | 0 | 3.2 | 0.0 | 0.00 | 0.05 | 0.00 | 74 | 1059.1 |
| 20260504170933 | 12 | 22 | 6.4 | 0.0 | 0.00 | 0.05 | 0.00 | 73 | 1059.1 |
| 20260504170830 | 12 | 67 | 9.7 | 0.0 | 0.00 | 0.05 | 0.00 | 73 | 1059.1 |
| 20260504170723 | 12 | 22 | 0.0 | 0.0 | 0.00 | 0.05 | 0.00 | 73 | 1059.1 |
| 20260504170610 | 12 | 0 | 3.2 | 0.0 | 0.00 | 0.05 | 0.00 | 73 | 1059.1 |
| 20260504170505 | 12 | 22 | 9.7 | 0.0 | 0.00 | 0.05 | 0.00 | 73 | 1059.1 |
| 20260504170400 | 12 | 0 | 12.9 | 0.0 | 0.00 | 0.05 | 0.00 | 73 | 1059.0 |
| 20260504170255 | 12 | 22 | 8.0 | 0.0 | 0.00 | 0.05 | 0.00 | 73 | 1059.1 |
| 20260504170141 | 12 | 22 | 6.4 | 0.0 | 0.00 | 0.05 | 0.00 | 73 | 1059.0 |
| 20260504160349 | 13 | 22 | 8.0 | 0.0 | 0.00 | 0.05 | 0.00 | 70 | 1059.2 |
| 20260504160243 | 13 | 90 | 4.8 | 0.0 | 0.00 | 0.05 | 0.00 | 71 | 1059.2 |
| 20260504160137 | 13 | 45 | 4.8 | 0.0 | 0.00 | 0.05 | 0.00 | 70 | 1059.2 |
| 20260504151147 | 16 | 45 | 0.0 | 0.0 | 0.00 | 0.20 | 0.00 | 68 | 1059.0 |
| 20260504151035 | 16 | 0 | 4.8 | 0.0 | 0.00 | 0.20 | 0.00 | 68 | 1059.0 |
| 20260504150913 | 16 | 45 | 9.7 | 0.0 | 0.00 | 0.20 | 0.00 | 69 | 1059.0 |
| 20260504150759 | 16 | 67 | 6.4 | 0.0 | 0.00 | 0.20 | 0.00 | 69 | 1059.0 |
| 20260504150631 | 16 | 22 | 3.2 | 0.0 | 0.00 | 0.20 | 0.00 | 69 | 1059.0 |
| 20260504150528 | 15 | 67 | 11.3 | 0.0 | 0.00 | 0.20 | 0.00 | 70 | 1059.0 |
| 20260504150420 | 15 | 67 | 4.8 | 0.0 | 0.00 | 0.20 | 0.00 | 69 | 1058.9 |
| 20260504150309 | 15 | 22 | 11.3 | 0.0 | 0.00 | 0.20 | 0.00 | 70 | 1059.1 |
| 20260504150203 | 15 | 22 | 9.7 | 0.0 | 0.00 | 0.20 | 0.00 | 70 | 1059.0 |
| 20260504141313 | 15 | 45 | 4.8 | 0.0 | 0.00 | 0.25 | 0.00 | 73 | 1059.1 |
| 20260504141159 | 15 | 22 | 8.0 | 0.0 | 0.00 | 0.25 | 0.00 | 73 | 1059.2 |
| 20260504141038 | 15 | 90 | 0.0 | 0.0 | 0.00 | 0.25 | 0.00 | 73 | 1059.3 |
| 20260504140917 | 15 | 45 | 0.0 | 0.0 | 0.00 | 0.25 | 0.00 | 73 | 1059.4 |
| 20260504140806 | 15 | 0 | 8.0 | 0.0 | 0.00 | 0.25 | 0.00 | 73 | 1059.3 |
| 20260504140651 | 14 | 67 | 4.8 | 0.0 | 0.00 | 0.25 | 0.00 | 73 | 1059.4 |
| 20260504140529 | 14 | 67 | 9.7 | 0.0 | 0.00 | 0.25 | 0.00 | 73 | 1059.4 |
| 20260504140400 | 14 | 45 | 11.3 | 0.0 | 0.00 | 0.25 | 0.00 | 73 | 1059.4 |
| 20260504140247 | 14 | 22 | 4.8 | 0.0 | 0.00 | 0.25 | 0.00 | 73 | 1059.4 |
| 20260504140126 | 14 | 22 | 12.9 | 0.0 | 0.00 | 0.25 | 0.00 | 73 | 1059.4 |
| 20260504130813 | 15 | 45 | 0.0 | 0.0 | 0.00 | 1.09 | 0.00 | 72 | 1059.4 |
| 20260504130708 | 15 | 45 | 9.7 | 0.0 | 0.00 | 1.09 | 0.00 | 73 | 1059.4 |
| 20260504130601 | 15 | 67 | 11.3 | 0.0 | 0.00 | 1.09 | 0.00 | 73 | 1059.4 |
| 20260504130449 | 15 | 67 | 9.7 | 0.0 | 0.00 | 1.09 | 0.00 | 73 | 1059.4 |
| 20260504130328 | 15 | 45 | 17.7 | 0.0 | 0.00 | 1.09 | 0.00 | 73 | 1059.3 |
| 20260504130214 | 15 | 45 | 11.3 | 0.0 | 0.00 | 1.09 | 0.00 | 74 | 1059.3 |
| 20260504120304 | 12 | 0 | 9.7 | 0.0 | 0.00 | 1.09 | 0.00 | 82 | 1059.5 |
| 20260504120156 | 12 | 0 | 4.8 | 0.0 | 0.00 | 1.09 | 0.00 | 82 | 1059.6 |
| 20260504110642 | 12 | 22 | 1.6 | 0.0 | 0.00 | 1.09 | 0.00 | 84 | 1059.7 |
| 20260504110537 | 12 | 45 | 0.0 | 0.0 | 0.00 | 1.09 | 0.00 | 84 | 1059.6 |
| 20260504110425 | 12 | 0 | 0.0 | 0.0 | 0.00 | 1.09 | 0.00 | 84 | 1059.7 |
| 20260504110317 | 12 | 45 | 0.0 | 0.0 | 0.00 | 1.09 | 0.00 | 84 | 1059.7 |
| 20260504110158 | 12 | 45 | 9.7 | 0.0 | 0.00 | 1.09 | 0.00 | 84 | 1059.7 |
| 20260504100503 | 12 | 45 | 4.8 | 0.0 | 0.00 | 1.09 | 0.00 | 84 | 1059.4 |
| 20260504100334 | 12 | 67 | 0.0 | 0.0 | 0.00 | 1.09 | 0.00 | 83 | 1059.4 |
| 20260504100222 | 12 | 22 | 1.6 | 0.0 | 0.00 | 1.09 | 0.00 | 83 | 1059.4 |
| 20260504100117 | 12 | 22 | 8.0 | 0.0 | 0.00 | 1.09 | 0.00 | 83 | 1059.4 |
| 20260504090108 | 13 | 22 | 6.4 | 0.0 | 0.00 | 1.09 | 0.00 | 80 | 1059.1 |
| 20260504081852 | 14 | 90 | 0.0 | 0.0 | 0.00 | 1.09 | 0.00 | 80 | 1058.5 |
| 20260504081739 | 14 | 90 | 0.0 | 0.0 | 0.00 | 1.09 | 0.00 | 80 | 1058.6 |
| 20260504081618 | 14 | 90 | 0.0 | 0.0 | 0.00 | 1.09 | 0.00 | 80 | 1058.6 |
| 20260504081505 | 14 | 90 | 0.0 | 0.0 | 0.00 | 1.09 | 0.00 | 81 | 1058.5 |
| 20260504081352 | 14 | 90 | 0.0 | 0.0 | 0.00 | 1.09 | 0.00 | 81 | 1058.6 |
| 20260504081238 | 14 | 90 | 0.0 | 0.0 | 0.00 | 1.09 | 0.00 | 81 | 1058.5 |
| 20260504081117 | 13 | 90 | 0.0 | 0.0 | 0.00 | 1.09 | 0.00 | 81 | 1058.5 |
| 20260504081003 | 13 | 90 | 0.0 | 0.0 | 0.00 | 1.09 | 0.00 | 81 | 1058.5 |
| 20260504080835 | 13 | 90 | 0.0 | 0.0 | 0.00 | 1.09 | 0.00 | 81 | 1058.5 |
| 20260504080722 | 13 | 90 | 4.8 | 0.0 | 0.00 | 1.09 | 0.00 | 82 | 1058.3 |
| 20260504080616 | 13 | 112 | 4.8 | 0.0 | 0.00 | 1.09 | 0.00 | 82 | 1058.4 |
| 20260504080504 | 13 | 112 | 0.0 | 0.0 | 0.00 | 1.09 | 0.00 | 82 | 1058.4 |
| 20260504080350 | 13 | 112 | 0.0 | 0.0 | 0.00 | 1.09 | 0.00 | 82 | 1058.4 |
| 20260504080229 | 13 | 112 | 0.0 | 0.0 | 0.00 | 1.09 | 0.00 | 82 | 1058.4 |
| 20260504080117 | 13 | 112 | 0.0 | 0.0 | 0.00 | 1.09 | 0.00 | 82 | 1058.4 |
| 20260504070302 | 11 | 45 | 0.0 | 0.0 | 0.00 | 1.09 | 0.00 | 87 | 1058.3 |
| 20260504070158 | 11 | 45 | 0.0 | 0.0 | 0.00 | 1.09 | 0.00 | 87 | 1058.3 |
| 20260504060158 | 11 | 67 | 0.0 | 0.0 | 0.00 | 1.09 | 0.00 | 89 | 1057.8 |